Regional Weather Roundup
Issued by NWS

Home | Current Version | Previous Version | Graphics & Text | Print | Product List | Glossary On
Versions: 1 2 3 4 5 6 7 8 9 10 11 12 13 14 15 16 17 18 19 20 21 22 23 24 25 26 27 28 29 30 31 32 33 34 35 36 37 38 39 40 41 42 43 44 45 46 47 48 49 50
854
ASUS43 KFSD 240110
RWRSD

WEATHER ROUNDUP FOR SOUTH DAKOTA
NATIONAL WEATHER SERVICE SIOUX FALLS SD
700 PM CST TUE JAN 23 2018

NOTE: "FAIR" INDICATES FEW OR NO CLOUDS BELOW 12,000 FEET WITH NO
SIGNIFICANT WEATHER AND/OR OBSTRUCTIONS TO VISIBILITY.


SDZ001>005-009-010-012>017-240200-
NORTHWEST AND NORTH CENTRAL SOUTH DAKOTA

CITY           SKY/WX    TMP DP  RH WIND       PRES   REMARKS
BUFFALO          N/A     27  19  72 W9        30.09S WCI  18
FAITH            N/A     30  24  78 NW13      30.15S WCI  20
MOBRIDGE       CLEAR     26  20  77 CALM      30.12R
$$

SDZ012>016-024>037-041>051-057-063-072>074-240200-
SOUTHWEST AND SOUTH CENTRAL SOUTH DAKOTA

CITY           SKY/WX    TMP DP  RH WIND       PRES   REMARKS
RAPID CTY ARPT PTCLDY    29  20  69 N9        30.20R WCI  20
PIERRE         CLEAR     27  22  81 W8        30.15R WCI  19
CUSTER         CLEAR     23  10  57 W3        30.14R
ELLSWORTH AFB  CLEAR     34  21  58 N10       30.18R WCI  26
PHILIP         CLEAR     32  25  75 W9        30.19R WCI  24
PINE RIDGE     PTCLDY    19  14  81 SW5       30.22R WCI  12
SPEARFISH        N/A     28  16  59 W7        30.17S WCI  21
WINNER         FAIR      31  24  75 W10       30.17R WCI  22
$$

SDZ004>011-016>023-039-040-240200-
NORTHEAST SOUTH DAKOTA

CITY           SKY/WX    TMP DP  RH WIND       PRES   REMARKS
ABERDEEN       PTCLDY    25  21  85 NW7       30.15R WCI  17
WATERTOWN      CLOUDY    21  20  96 CALM      30.10S
BROOKINGS      CLOUDY    23  21  92 NW7       30.13S WCI  15
SISSETON         N/A     23  20  88 CALM      30.13R
$$

SDZ017-020-022-023-036>040-048>070-240200-
SOUTHEAST SOUTH DAKOTA

CITY           SKY/WX    TMP DP  RH WIND       PRES   REMARKS
SIOUX FALLS    CLOUDY    25  24  96 CALM      30.14F
HURON          MOCLDY    23  22  96 CALM      30.15R
CHAMBERLAIN    PTCLDY    33  29  85 W7        30.16R WCI  27
MITCHELL       MOCLDY    28  25  88 CALM      30.16R
YANKTON        FOG       21  17  84 CALM      30.17S VSB 3/4
$$

ABBREVIATIONS USED IN REMARKS
   TC - TEMPERATURE IN CELSIUS
  WCI - WIND CHILL INDEX
   HX - HEAT INDEX
  VSB - VISIBILITY





USA.gov is the U.S. government's official web portal to all federal, state and local government web resources and services.